Date,TemperatureHighF,TemperatureAvgF,TemperatureLowF,DewpointHighF,DewpointAvgF,DewpointLowF,HumidityHigh,HumidityAvg,HumidityLow,PressureMaxIn,PressureMinIn,WindSpeedMaxMPH,WindSpeedAvgMPH,GustSpeedMaxMPH,PrecipitationSumIn
2013-1-1,44.6,40.8,34.9,39.6,37.1,30.7,91,87,80,29.88,29.28,22,6,22,0.20
2013-1-2,52.0,48.7,39.9,49.7,46.6,37.2,95,92,89,30.07,29.88,16,4,16,0.18
2013-1-3,51.6,50.4,49.1,49.7,47.8,46.8,94,91,87,30.39,30.07,19,4,19,0.04
2013-1-4,49.5,47.5,46.4,47.2,44.6,43.2,93,90,84,30.43,30.38,11,4,11,0.00
2013-1-5,50.2,48.5,44.2,47.1,45.1,42.1,92,88,84,30.38,30.23,16,6,16,0.08
2013-1-6,48.6,45.0,38.8,45.8,42.7,37.5,96,92,82,30.37,30.13,12,3,12,0.09
2013-1-7,49.6,48.5,46.9,48.3,46.5,44.3,95,93,90,30.14,29.94,11,2,11,0.37
2013-1-8,51.3,45.6,40.8,48.7,42.6,38.3,93,89,85,30.12,29.91,12,2,12,0.15
2013-1-9,46.9,39.9,32.4,41.7,36.8,29.8,94,89,75,30.11,29.99,10,1,10,0.00
2013-1-10,48.4,33.3,27.1,43.2,30.1,23.8,95,88,71,29.99,29.84,3,0,3,0.01
2013-1-11,43.0,36.9,33.1,37.7,34.2,30.8,95,90,81,29.94,29.84,10,2,10,0.02
2013-1-12,41.4,36.3,33.6,34.5,31.6,28.9,87,83,74,30.03,29.81,10,1,10,0.01
2013-1-13,35.2,33.8,32.4,32.6,30.8,28.2,90,89,81,30.03,29.92,10,3,10,0.07
2013-1-14,39.4,34.6,30.6,36.6,30.5,26.6,95,85,78,29.91,29.68,13,2,13,0.12
2013-1-15,41.9,31.8,25.7,32.8,27.4,21.5,90,84,64,29.81,29.74,6,0,6,0.01
2013-1-16,32.5,31.1,26.1,25.8,24.1,21.6,83,74,67,29.86,29.71,13,3,13,0.00
2013-1-17,40.6,33.5,31.3,28.0,24.7,21.1,79,70,55,29.87,29.61,24,4,24,0.00
2013-1-18,34.2,31.1,29.3,27.2,22.2,19.5,77,69,64,29.61,29.35,25,8,25,0.00
2013-1-19,37.2,33.4,30.6,27.6,25.6,22.0,77,73,66,29.60,29.38,14,2,14,0.00
2013-1-20,34.0,32.7,31.6,26.2,24.3,23.3,77,71,65,29.58,29.40,8,2,8,0.00
2013-1-21,34.5,32.8,30.6,30.2,28.7,24.8,87,85,73,29.39,29.32,4,0,4,0.01
2013-1-22,40.6,29.6,24.1,31.6,24.0,19.7,89,80,66,29.72,29.35,6,0,6,0.04
2013-1-23,36.5,32.8,25.7,29.0,27.6,21.3,89,81,72,29.85,29.71,9,1,9,0.01
2013-1-24,34.7,32.7,27.9,29.4,27.7,23.1,87,81,75,29.95,29.84,17,4,17,0.00
2013-1-25,34.3,32.8,30.9,31.2,30.0,26.6,91,88,79,29.88,29.31,23,10,23,0.15
2013-1-26,47.7,39.9,34.0,46.0,36.5,31.1,95,88,74,29.53,28.91,17,6,17,0.31
2013-1-27,48.7,39.3,35.8,46.5,34.9,30.8,94,84,77,29.21,28.78,24,8,24,0.30
2013-1-28,46.4,42.1,36.3,42.2,37.7,31.2,91,84,79,29.32,28.89,30,10,30,0.21
2013-1-29,51.8,45.9,42.4,49.7,41.3,35.4,94,84,72,29.32,28.96,27,8,27,0.11
2013-1-30,43.9,41.7,39.6,38.9,36.9,34.7,89,83,74,29.64,29.14,21,9,21,0.14
2013-1-31,46.8,41.5,34.3,38.7,36.1,30.9,94,81,68,29.63,29.21,35,10,35,0.50